THOR BURNER 2 R/B

基本信息
目录编号:
4513
目录名称:
THOR BURNER 2 R/B
国际标识:
1970-070B
轨道中心:
EARTH
物体状态:
在轨
发射日期:
1970-09-03 UTC
国别:
美国 (US)
轨道信息
数据来源: 国际轨道数据
星历时间: 2026-07-14T05:18:05+0800
半长轴: 7153.809km
偏心率: 0.0066187
轨道倾角: 98.970°
近地点辐角: 150.418°
升交点赤经: 167.249°
平近点角: 210.078°
近地点: 728.323km
远地点: 823.021km
周期: 100.361分钟
每日圈数: 14.348179
详细信息
发射场:
AFWTR
轨道高度:
LEO
数据来源:
AOE Integration Group
参考系:
TEME
时间系统:
UTC
历元类型:
SGP4
2D轨道图
3D轨道图
轨道高度分析图
轨道倾角分析图
轨道综合分析图
查看轨道综合分析图